Flag for U.S.A. Weather past 2 weeks in Grand Prairie, Texas, U.S.A.

Now
93 °F

Sunny.


Feels Like: 92 °F
Forecast: 78 / 97 °F
Wind: 8 mph from Northeast

Location: Grand Prairie Municipal Airport

Current Time: Jul 24, 2014 at 6:06:42 PM

Latest Report: Jul 24, 2014 at 4:50 PM


Visibility: 10 mi

Pressure: 29.99 "Hg

Humidity: 30%

Dew point: 57 °F

Location of Grand PrairieLocation

Historic Weather in Grand Prairie — Graph

°F

Grand Prairie temperature yesterday

Maximum temperature yesterday: 93 °F (at 4:50 PM)
Minimum temperature yesterday: 75 °F (at 6:15 AM)
Average temperature yesterday: 82 °F

Past Weeks' High & Low Weather Summary

 TemperatureHumidityPressure
High100 °F (Jul 14, 2:50 PM)100% (Jul 17, 2:50 PM)30.19 "Hg (Jul 17, 2:50 PM)
Low36 °F (Jul 18, 11:50 AM)22% (Jul 15, 6:50 PM)29.88 "Hg (Jul 16, 6:50 PM)
Average80 °F63%30.03 "Hg
* Reported Jul 9 4:50 PM — Jul 24 4:50 PM, Grand Prairie, Weather by CustomWeather, © 2014

Note: Actual official high and low records may vary slightly from our data, if they occured in-between our weather recording intervals... More about our weather records

Advertising

Grand Prairie weather history for previous 24 hours

 ConditionsComfort  
Time TempWeatherWind HumidityBarometerVisibility
4:50 PM
Jul 24
93 °FSunny.8 mph30%29.99 "Hg10 mi
3:50 PM93 °FSunny.8 mph30%30.00 "Hg10 mi
2:50 PM93 °FSunny.12 mph32%30.02 "Hg10 mi
1:50 PM91 °FSunny.7 mph38%30.03 "Hg10 mi
12:50 PM86 °FSunny.7 mph52%30.05 "Hg10 mi
11:50 AM86 °FSunny.No wind52%30.07 "Hg10 mi
10:50 AM84 °FSunny.9 mph55%30.09 "Hg10 mi
9:50 AM79 °FSunny.No wind65%30.08 "Hg10 mi
7:50 AM75 °FScattered clouds.No wind74%30.08 "Hg10 mi
6:50 AM75 °FPassing clouds.No wind74%30.08 "Hg10 mi
6:35 AM75 °FPassing clouds.5 mph75%30.07 "Hg10 mi
6:15 AM74 °FPassing clouds.No wind74%30.06 "Hg10 mi
5:55 AM76 °FPassing clouds.No wind70%30.05 "Hg10 mi
5:35 AM75 °FPassing clouds.No wind71%30.05 "Hg10 mi
5:15 AM75 °FPassing clouds.No wind72%30.05 "Hg10 mi
4:55 AM75 °FClear.No wind70%30.05 "Hg10 mi
4:35 AM76 °FClear.3 mph69%30.04 "Hg10 mi
4:15 AM77 °FClear.3 mph67%30.04 "Hg10 mi
3:55 AM77 °FClear.3 mph65%30.03 "Hg10 mi
3:35 AM78 °FClear.6 mph61%30.01 "Hg10 mi
3:15 AM78 °FClear.5 mph62%30.01 "Hg10 mi
2:55 AM78 °FClear.No wind63%30.00 "Hg10 mi
2:35 AM78 °FClear.9 mph63%30.00 "Hg10 mi
2:15 AM77 °FClear.7 mph64%30.01 "Hg10 mi
1:55 AM78 °FClear.7 mph65%30.02 "Hg10 mi
1:35 AM77 °FClear.5 mph66%30.03 "Hg10 mi
12:35 AM76 °FClear.No wind67%30.05 "Hg10 mi
12:15 AM76 °FClear.5 mph67%30.05 "Hg10 mi
11:55 PM
Jul 23
76 °FPassing clouds.No wind70%30.06 "Hg10 mi
11:35 PM76 °FPassing clouds.9 mph69%30.02 "Hg10 mi
11:15 PM76 °FClear.10 mph66%30.10 "Hg10 mi
10:55 PM77 °FClear.8 mph65%30.09 "Hg10 mi
10:35 PM77 °FClear.12 mph65%30.10 "Hg10 mi
10:15 PM78 °FClear.12 mph64%30.10 "Hg10 mi
9:55 PM78 °FClear.16 mph63%30.10 "Hg10 mi
9:35 PM80 °FClear.22 mph60%30.10 "Hg10 mi
9:15 PM84 °FScattered clouds.20 mph56%30.07 "Hg10 mi
8:55 PM90 °FScattered clouds.12 mph47%30.05 "Hg10 mi
8:35 PM90 °FSunny.12 mph45%30.04 "Hg10 mi
7:50 PM91 °FSunny.8 mph44%30.04 "Hg10 mi
6:50 PM93 °FSunny.6 mph39%30.02 "Hg10 mi
Weather by CustomWeather, © 2014

See weather overviewHow to use our weather pages